Location: Litvinovka
(48.6667°N, 34.3500°E)
Time: 07:40:28
(UTC+00:00)

ATLAS 2AS CENTAUR R/B - Pass Details

Date: 18 September 2020
Orbit: 939 x 1273 km, 63.7° (Epoch: 19 October)

Event Time Altitude Azimuth Distance (km) Brightness Sun altitude
Rises 19:14:26 0° 216° (SW) 4,195 5.7 -31.2°
Enters shadow 19:16:57 - 216° (SW) 3,333 5.1 -31.5°
Exits shadow 19:24:45 81° 188° (S) 1,290 2.9 -32.4°
Maximum altitude 19:25:10 86° 128° (SE) 1,281 2.9 -32.4°
Drops below altitude 10° 19:33:03 10° 42° (NE) 3,221 5.3 -33.2°
Sets 19:35:48 0° 42° (NE) 4,160 5.9 -33.5°
